Date String (YYYY-MM-DD hh:mm:ss) UTC,Instrument flags,absolute air pressure of the measurement (hPa),sample flow rate (lpm),inlet stack bypass flow (lpm),air temperature of the measurement (°C),ambient temperature measured by the external sensor (°C),aerosol sample conditioner tube jacket temperature (°C),OPC LED temperature (°C),internal box temperature (°C),relative humidity of the measurement (%),span deviation,mass concentration of particles derived from Lorenz-Mie calculation of OPC scattering (μg/m³),mass concentration of particles derived from Lorenz-Mie calculation of OPC scattering (μg/m³),mass concentration of particles derived from Lorenz-Mie calculation of OPC scattering (μg/m³)
DateTimeUTC,F1_M11,P_M11,Q1_M11,Q2_M11,T1_M11,T2_M11,T3_M11,T4_M11,T5_M11,U1_M11,ZSPAN_M11,X0_M11,X2_M11,X1_M11
2024-02-21 17:00:00,SystemResetWarning,0824.1,5.00,000.00,023.2,022.6,000.0,031.5,025.0,19.4,0000.0,0010.43,0004.18,0003.90
2024-02-21 17:01:00,SystemResetWarning,0824.0,4.99,000.00,023.2,022.6,000.0,031.5,025.0,19.5,0000.0,0010.50,0004.21,0003.92
2024-02-21 17:02:00,SystemResetWarning,0824.1,4.99,000.00,023.2,022.6,000.0,031.5,025.0,18.9,0000.0,0010.58,0004.25,0003.93
2024-02-21 17:03:00,SystemResetWarning,0824.1,5.00,000.00,023.2,022.6,000.0,031.5,025.0,19.1,0000.0,0010.54,0004.26,0003.96
2024-02-21 17:04:00,SystemResetWarning,0824.0,5.00,000.00,023.2,022.6,000.0,031.5,025.0,18.5,0000.0,0010.53,0004.28,0003.99
2024-02-21 17:05:00,SystemResetWarning,0823.9,5.00,000.00,023.2,022.6,000.0,031.5,025.0,18.2,0000.0,0010.39,0004.28,0004.00
2024-02-21 17:06:00,SystemResetWarning,0823.9,4.99,000.00,023.2,022.6,000.0,031.5,025.0,18.5,0000.0,0009.69,0004.29,0004.02
2024-02-21 17:07:00,SystemResetWarning,0823.8,5.00,000.00,023.2,022.7,000.0,031.5,025.0,18.4,0000.0,0009.44,0004.30,0004.02
2024-02-21 17:08:00,SystemResetWarning,0823.8,5.00,000.00,023.2,022.7,000.0,031.5,025.0,18.5,0000.0,0008.83,0004.31,0004.04
2024-02-21 17:09:00,SystemResetWarning,0823.8,5.00,000.00,023.2,022.7,000.0,031.6,025.1,18.5,0000.0,0007.87,0004.31,0004.06
2024-02-21 17:10:00,SystemResetWarning,0823.9,5.01,000.00,023.2,022.7,000.0,031.6,025.1,18.5,0000.0,0008.13,0004.33,0004.08
2024-02-21 17:11:00,SystemResetWarning,0823.9,5.00,000.00,023.2,022.7,000.0,031.6,025.1,18.6,0000.0,0007.98,0004.37,0004.11
2024-02-21 17:12:00,SystemResetWarning,0824.0,4.99,000.00,023.3,022.7,000.0,031.6,025.0,18.5,0000.0,0007.83,0004.40,0004.15
2024-02-21 17:13:00,SystemResetWarning,0824.0,5.00,000.00,023.3,022.7,000.0,031.6,025.1,18.6,0000.0,0007.75,0004.41,0004.18
2024-02-21 17:14:00,SystemResetWarning,0823.9,5.00,000.00,023.3,022.7,000.0,031.6,025.1,19.1,0000.0,0007.74,0004.42,0004.19
2024-02-21 17:15:00,SystemResetWarning,0823.8,5.00,000.00,023.3,022.7,000.0,031.6,025.1,19.1,0000.0,0007.76,0004.44,0004.19
2024-02-21 17:16:00,SystemResetWarning,0823.7,5.00,000.00,023.3,022.7,000.0,031.6,025.1,19.1,0000.0,0008.05,0004.49,0004.21
2024-02-21 17:17:00,SystemResetWarning,0823.6,5.00,000.00,023.3,022.7,000.0,031.6,025.1,19.2,0000.0,0008.13,0004.52,0004.24
2024-02-21 17:18:00,SystemResetWarning,0823.7,5.00,000.00,023.3,022.7,000.0,031.6,025.1,18.8,0000.0,0008.12,0004.53,0004.27
2024-02-21 17:19:00,SystemResetWarning,0823.8,5.00,000.00,023.3,022.8,000.0,031.7,025.1,18.5,0000.0,0008.21,0004.60,0004.29
2024-02-21 17:20:00,SystemResetWarning,0823.8,5.00,000.00,023.3,022.8,000.0,031.7,025.2,19.1,0000.0,0008.22,0004.63,0004.32
2024-02-21 17:21:00,SystemResetWarning,0823.8,5.01,000.00,023.3,022.8,000.0,031.7,025.2,19.2,0000.0,0008.06,0004.67,0004.35
2024-02-21 17:22:00,SystemResetWarning,0823.8,5.00,000.00,023.4,022.8,000.0,031.7,025.2,18.8,0000.0,0007.59,0004.70,0004.37
2024-02-21 17:23:00,SystemResetWarning,0823.8,4.99,000.00,023.4,022.8,000.0,031.7,025.2,18.8,0000.0,0007.67,0004.73,0004.39
2024-02-21 17:24:00,SystemResetWarning,0823.7,4.99,000.00,023.4,022.8,000.0,031.7,025.2,18.8,0000.0,0007.70,0004.76,0004.43
2024-02-21 17:25:00,SystemResetWarning,0823.7,4.99,000.00,023.4,022.8,000.0,031.7,025.2,18.8,0000.0,0008.24,0004.78,0004.47
2024-02-21 17:26:00,SystemResetWarning,0823.7,5.00,000.00,023.4,022.8,000.0,031.7,025.2,18.6,0000.0,0008.76,0004.82,0004.49
2024-02-21 17:27:00,SystemResetWarning,0823.8,5.00,000.00,023.4,022.8,000.0,031.7,025.2,18.2,0000.0,0008.69,0004.84,0004.52
2024-02-21 17:28:00,SystemResetWarning,0823.8,5.00,000.00,023.4,022.8,000.0,031.7,025.2,18.6,0000.0,0008.69,0004.86,0004.54
2024-02-21 17:29:00,SystemResetWarning,0823.8,5.01,000.00,023.4,022.9,000.0,031.8,025.2,18.9,0000.0,0008.90,0004.94,0004.58
2024-02-21 17:30:00,SystemResetWarning,0823.7,5.01,000.00,023.4,022.9,000.0,031.8,025.2,18.9,0000.0,0009.01,0004.97,0004.62
2024-02-21 17:31:00,SystemResetWarning,0823.7,5.00,000.00,023.4,022.9,000.0,031.8,025.2,18.9,0000.0,0009.12,0005.01,0004.64
2024-02-21 17:32:00,SystemResetWarning,0823.6,5.00,000.00,023.5,022.9,000.0,031.8,025.2,18.9,0000.0,0009.70,0005.02,0004.66
2024-02-21 17:33:00,SystemResetWarning,0823.5,4.99,000.00,023.5,022.9,000.0,031.8,025.2,18.9,0000.0,0010.03,0005.01,0004.66
2024-02-21 17:34:00,SystemResetWarning,0823.5,5.00,000.00,023.5,022.9,000.0,031.8,025.2,18.8,0000.0,0010.14,0005.01,0004.65
2024-02-21 17:35:00,SystemResetWarning,0823.5,5.00,000.00,023.5,022.9,000.0,031.8,025.3,18.4,0000.0,0010.44,0005.02,0004.63
2024-02-21 17:36:00,SystemResetWarning,0823.6,5.00,000.00,023.5,022.9,000.0,031.8,025.3,18.0,0000.0,0010.65,0005.02,0004.62
2024-02-21 17:37:00,SystemResetWarning,0823.6,5.00,000.00,023.5,022.9,000.0,031.8,025.3,18.1,0000.0,0010.52,0005.06,0004.65
2024-02-21 17:38:00,SystemResetWarning,0823.6,5.00,000.00,023.5,023.0,000.0,031.8,025.3,18.1,0000.0,0010.45,0005.06,0004.66
2024-02-21 17:39:00,SystemResetWarning,0823.6,4.99,000.00,023.5,023.0,000.0,031.8,025.3,17.7,0000.0,0011.11,0005.11,0004.68
2024-02-21 17:40:00,SystemResetWarning,0823.6,5.00,000.00,023.5,023.0,000.0,031.8,025.4,17.6,0000.0,0011.27,0005.13,0004.70
2024-02-21 17:41:00,SystemResetWarning,0823.6,5.00,000.00,023.5,023.0,000.0,031.8,025.4,18.0,0000.0,0011.15,0005.09,0004.71
2024-02-21 17:42:00,SystemResetWarning,0823.6,5.00,000.00,023.6,023.0,000.0,031.8,025.4,17.8,0000.0,0011.09,0005.10,0004.72
2024-02-21 17:43:00,SystemResetWarning,0823.5,5.01,000.00,023.6,023.0,000.0,031.9,025.4,17.5,0000.0,0011.05,0005.12,0004.73
2024-02-21 17:44:00,SystemResetWarning,0823.5,5.00,000.00,023.6,023.0,000.0,031.9,025.4,18.0,0000.0,0011.37,0005.13,0004.73
2024-02-21 17:45:00,SystemResetWarning,0823.5,5.00,000.00,023.6,023.0,000.0,031.9,025.4,17.7,0000.0,0011.38,0005.18,0004.75
2024-02-21 17:46:00,SystemResetWarning,0823.4,5.00,000.00,023.6,023.0,000.0,031.9,025.5,17.4,0000.0,0011.53,0005.19,0004.77
2024-02-21 17:47:00,SystemResetWarning,0823.5,4.99,000.00,023.6,023.1,000.0,031.9,025.5,17.5,0000.0,0011.98,0005.22,0004.78
2024-02-21 17:48:00,SystemResetWarning,0823.5,5.00,000.00,023.6,023.1,000.0,031.9,025.5,17.3,0000.0,0011.76,0005.24,0004.77
2024-02-21 17:49:00,SystemResetWarning,0823.5,4.99,000.00,023.7,023.1,000.0,031.9,025.5,17.2,0000.0,0011.76,0005.22,0004.74
2024-02-21 17:50:00,SystemResetWarning,0823.5,5.00,000.00,023.7,023.1,000.0,032.0,025.5,17.0,0000.0,0011.23,0005.19,0004.71
2024-02-21 17:51:00,SystemResetWarning,0823.4,5.01,000.00,023.7,023.1,000.0,032.0,025.5,16.7,0000.0,0011.07,0005.17,0004.67
2024-02-21 17:52:00,SystemResetWarning,0823.4,5.01,000.00,023.7,023.1,000.0,032.0,025.5,16.6,0000.0,0011.10,0005.16,0004.63
2024-02-21 17:53:00,SystemResetWarning,0823.4,5.00,000.00,023.7,023.1,000.0,032.0,025.5,16.6,0000.0,0011.08,0005.15,0004.61
2024-02-21 17:54:00,SystemResetWarning,0823.4,4.99,000.00,023.7,023.1,000.0,032.0,025.5,16.9,0000.0,0011.02,0005.19,0004.61
2024-02-21 17:55:00,SystemResetWarning,0823.5,5.00,000.00,023.7,023.1,000.0,032.0,025.5,16.8,0000.0,0010.14,0005.21,0004.61
2024-02-21 17:56:00,SystemResetWarning,0823.4,4.99,000.00,023.7,023.1,000.0,032.0,025.5,16.6,0000.0,0010.15,0005.20,0004.59
2024-02-21 17:57:00,SystemResetWarning,0823.4,5.00,000.00,023.7,023.1,000.0,032.0,025.5,16.6,0000.0,0009.68,0005.21,0004.59
2024-02-21 17:58:00,SystemResetWarning,0823.3,5.01,000.00,023.7,023.1,000.0,032.0,025.5,16.8,0000.0,0009.55,0005.22,0004.60
2024-02-21 17:59:00,SystemResetWarning,0823.3,5.01,000.00,023.7,023.1,000.0,032.0,025.5,16.8,0000.0,0009.48,0005.19,0004.59
